Volver al catálogo

STARLINK-34516

ActivoComunicacionesVLEO
NORAD 64605·PAYLOAD·🇺🇸 United States

Lanzado Jun 25, 2025 desde Cape Canaveral Space Force Station

Loading…

Próximos Pases (próximas 24 horas)

TLE

ActualizadoSource: CelesTrak SupGP

Época: Sep 14, 2026, 21:21 UTC

1 64605C 25137M   26257.89006944 -.00013127  00000+0 -42198-3 0  2570
2 64605  53.1570 174.6093 0001176  85.9054  65.9896 15.31721090    13

Sigue STARLINK-34516 en tiempo real con AllMySat

Download on the App Store